Location: Dąbrowa Miętka
(51.3714°N, 18.6370°E)
Time: 18:23:58
(UTC+02:00)

ISS - Pass Details

Date: 27 May 2018
Orbit: 402 x 406 km, 51.6° (Epoch: 22 June)

Event Time Altitude Azimuth Distance (km) Brightness Sun altitude
Rises 21:50:02 0° 263° (W) 2,322 0.5 -8.0°
Reaches altitude 10° 21:52:07 10° 264° (W) 1,462 -0.5 -8.2°
Maximum altitude 21:55:23 87° 349° (N) 410 -3.8 -8.5°
Drops below altitude 10° 21:58:40 10° 84° (E) 1,461 -1.3 -8.8°
Sets 22:00:45 0° 84° (E) 2,320 -0.3 -9.0°
